Location: Columbia
(38.9520°N, 92.3340°W)
Time: 10:36:56
(UTC-05:00)

SL-08 RB Rocket - Visible Passes

Search period start: 03 July 2015 00:00
Search period end: 13 July 2015 00:00
Orbit: 648 x 687 km, 98.1° (Epoch: 03 July)

Date Brightness Start Highest point End Pass type
(mag) Time Alt. Az. Time Alt. Az. Time Alt. Az.
03 Jul 5.9 21:18:27 10° ENE 21:19:27 11° ENE 21:20:41 10° NE visible
03 Jul 3.7 22:54:28 40° S 22:56:00 73° WSW 23:00:30 10° NNW visible
04 Jul 5.1 21:48:40 14° ESE 21:51:09 23° ENE 21:54:42 10° NNE visible
04 Jul 5.0 23:26:50 27° SW 23:28:06 32° W 23:32:06 10° NNW visible
05 Jul 4.1 22:21:03 29° SE 22:22:58 48° ENE 22:27:19 10° N visible
05 Jul 6.0 23:59:13 14° WSW 00:00:23 15° W 00:02:46 10° WNW visible
06 Jul 5.9 21:17:39 10° ENE 21:18:22 10° ENE 21:19:21 10° NE visible
06 Jul 3.7 22:53:26 42° S 22:54:55 75° WSW 22:59:24 10° NNW visible
07 Jul 5.2 21:47:39 14° ESE 21:50:04 22° ENE 21:53:34 10° NNE visible
07 Jul 4.9 23:25:48 28° SW 23:27:00 32° W 23:31:01 10° NNW visible
08 Jul 4.1 22:20:01 29° SE 22:21:54 47° ENE 22:26:12 10° N visible
08 Jul 5.9 23:58:11 14° WSW 23:59:17 15° W 00:01:44 10° WNW visible
09 Jul 5.9 21:16:57 10° ENE 21:17:18 10° ENE 21:17:53 10° NE visible
09 Jul 3.7 22:52:24 43° S 22:53:49 77° WSW 22:58:18 10° NNW visible
10 Jul 5.2 21:46:37 14° ESE 21:48:59 21° ENE 21:52:26 10° NNE visible
10 Jul 4.9 23:24:47 29° SW 23:25:54 33° W 23:29:56 10° NNW visible
11 Jul 4.1 22:19:00 29° SE 22:20:48 45° ENE 22:25:05 10° N visible
11 Jul 5.9 23:57:10 14° WSW 23:58:11 15° W 00:00:43 10° NW visible
12 Jul 3.6 22:51:23 45° S 22:52:43 79° WSW 22:57:12 10° NNW visible
